This demonstration page uses our WeatherBlox Daily Observations layout. Learn more.

39.01783, -85.05884

Hourly Observations for September 16, 2020

Temp ( °F °C ) Dew Point ( °F °C ) Humidity (%) Winds ( mph kmh ) Pressure ( in mb ) Visibility ( mi km ) Precip ( " mm )
12:52 am 00:52 Clear 58 14.4 50 10 75 75 E 3 6 30.14 1021 10 16.0934 0 0
1:52 am 01:52 Clear 58 14.4 50 10 75 75 SE 3 6 30.12 1020 10 16.0934 0 0
2:52 am 02:52 Clear 59 15 50 10 72 72 E 3 6 30.11 1020 10 16.0934 0 0
3:52 am 03:52 Clear 57 13.9 50 10 78 78 ENE 3 6 30.1 1019 10 16.0934 0 0
4:52 am 04:52 Mostly Clear 56 13.3 50 10 81 81 NNE 3 6 30.09 1019 10 16.0934 0 0
5:52 am 05:52 Mostly Clear 54 12.2 51 10.6 90 90 NNE 3 6 30.08 1019 10 16.0934 0 0
6:16 am 06:16 Partly Cloudy 55 12.8 51 10.6 87 87 NNE 5 7 30.1 1019 10 16.0934 0 0
6:26 am 06:26 Partly Cloudy with Patchy Fog 54 12.2 51 10.6 90 90 N 6 9 30.1 1019 2.5 4.02335 0 0
6:39 am 06:39 Mostly Cloudy with Patchy Fog 54 12.2 52 11.1 93 93 NNE 5 7 30.1 1019 3 4.82802 0 0
6:52 am 06:52 Partly Cloudy with Patchy Fog 53 11.7 51 10.6 93 93 N 5 7 30.09 1019 4 6.43736 0 0
7:52 am 07:52 Partly Cloudy with Mist and Fog 52 11.1 51 10.6 97 97 Calm 30.09 1019 5 8.0467 0 0
8:36 am 08:36 Partly Cloudy with Mist and Fog 56 13.3 53 11.7 90 90 E 3 6 30.11 1020 6 9.65604 0 0
8:52 am 08:52 Partly Cloudy 57 13.9 53 11.7 87 87 Calm 30.1 1019 7 11.26538 0 0
8:55 am 08:55 Mostly Cloudy 57 13.9 53 11.7 87 87 Calm 30.11 1020 10 16.0934 0 0
9:46 am 09:46 Partly Cloudy 61 16 54 12 77 77 Calm 30.1 1019 9 14.48406 0 0
9:52 am 09:52 Mostly Sunny 62 16.7 54 12.2 75 75 Calm 30.1 1019 10 16.0934 0 0
10:52 am 10:52 Mostly Sunny 67 19.4 59 15 76 76 Calm 30.09 1019 10 16.0934 0 0
11:52 am 11:52 Mostly Sunny 70 21.1 59 15 68 68 VRB 3 6 30.09 1019 10 16.0934 0 0
12:52 pm 12:52 Partly Cloudy 73 22.8 57 13.9 57 57 VRB 5 7 30.08 1019 10 16.0934 0 0
1:52 pm 13:52 Mostly Sunny 74 23.3 56 13.3 54 54 SSW 7 11 30.07 1018 10 16.0934 0 0
2:52 pm 14:52 Mostly Cloudy 76 24.4 54 12.2 47 47 SSW 7 11 30.04 1017 10 16.0934 0 0
3:52 pm 15:52 Partly Cloudy 77 25 56 13.3 48 48 SW 7 11 30.03 1017 10 16.0934 0 0
4:52 pm 16:52 Mostly Cloudy 75 23.9 56 13.3 52 52 W 5 7 30.02 1017 10 16.0934 0 0
5:52 pm 17:52 Mostly Cloudy 76 24.4 56 13.3 50 50 S 3 6 30.02 1017 10 16.0934 0 0
6:52 pm 18:52 Mostly Cloudy 73 22.8 59 15 62 62 Calm 30.03 1017 10 16.0934 0 0
7:52 pm 19:52 Cloudy 70 21.1 59 15 68 68 SSW 3 6 30.03 1017 10 16.0934 0 0
8:52 pm 20:52 Cloudy 69 20.6 59 15 70 70 Calm 30.03 1017 10 16.0934 0 0
9:52 pm 21:52 Mostly Cloudy 65 18.3 58 14.4 78 78 W 3 6 30.04 1017 10 16.0934 0 0
10:52 pm 22:52 Mostly Cloudy 63 17.2 58 14.4 84 84 Calm 30.04 1017 10 16.0934 0 0
11:52 pm 23:52 Cloudy 61 16.1 56 13.3 84 84 Calm 30.04 1017 10 16.0934 0 0

Powered by AerisWeather